Regional Weather Roundup
Issued by NWS Wilmington, NC

Home | Current Version | Previous Version | Text Only | Print | Product List | Glossary On
Versions: 1 2 3 4 5 6 7 8 9 10 11 12 13 14 15 16 17 18 19 20 21 22 23 24 25 26 27 28 29 30 31 32 33 34 35 36 37 38 39 40 41 42 43 44 45 46 47 48 49 50
000
ASUS42 KILM 280913
RWRILM
RWRILM
REGIONAL HOURLY WEATHER ROUNDUP
NATIONAL WEATHER SERVICE WILMINGTON NC
500 AM EDT TUE JUL 28 2015

NOTE: "FAIR" INDICATES FEW OR NO CLOUDS BELOW 12,000 FEET WITH NO
SIGNIFICANT WEATHER AND/OR OBSTRUCTIONS TO VISIBILITY.

...............WFO WILMINGTON COUNTY WARNING AREA...............

......COASTAL NC AND SC COUNTIES......

CITY           SKY/WX    TMP DP  RH WIND       PRES   REMARKS
WILMINGTON     PTCLDY    71  70  96 NE5       29.96F
N MYRTLE BEACH CLEAR     74  71  91 NE6       29.95F
MYRTLE BEACH   CLEAR     75  70  83 N6        29.97S

......INLAND NC AND SC COUNTIES.......

CITY           SKY/WX    TMP DP  RH WIND       PRES   REMARKS
LUMBERTON      CLEAR     73  70  90 CALM      29.97F
ELIZABETHTOWN  CLEAR     72  72 100 CALM      29.98F FOG
WHITEVILLE     CLEAR     72  70  96 CALM      29.97S FOG
FLORENCE       MOCLDY    75  73  93 NE6       29.97S
DARLINGTON     PTCLDY    75  70  83 E6        29.98F

....................REST OF NORTH CAROLINA......................

.........EASTERN NC.........

CITY           SKY/WX    TMP DP  RH WIND       PRES   REMARKS
CAPE HATTERAS  CLEAR     72  69  90 NE3       30.00S
JACKSONVILLE   CLEAR     70  64  83 N5        29.99S
MOREHEAD CITY  CLEAR     73  71  93 NE5       29.98F
KENANSVILLE    CLEAR     69  68  96 CALM      30.00S
NEW BERN       MOCLDY    71  68  90 CALM      30.00S FOG
ELIZABETH CITY CLEAR     71  70  96 CALM      30.00F

.........CENTRAL NC.........

CITY           SKY/WX    TMP DP  RH WIND       PRES   REMARKS
RALEIGH DURHAM MOCLDY    74  70  87 S3        30.00F
ROCKY MOUNT    CLEAR     70  69  97 CALM      30.00S FOG
ROANOKE RAPIDS NOT AVBL
FAYETTEVILLE   CLEAR     73  70  90 CALM      29.98F
HOFFMAN        PTCLDY    73  71  94 E1        29.98F

.........WESTERN NC.........

CITY           SKY/WX    TMP DP  RH WIND       PRES   REMARKS
CHARLOTTE      CLEAR     74  70  87 CALM      30.00F
GREENSBORO     MOCLDY    71  70  96 SE3       30.01S
HICKORY        NOT AVBL
BOONE          NOT AVBL
ASHEVILLE      NOT AVBL

.....................REST OF SOUTH CAROLINA.....................

.........EASTERN SC.........

CITY           SKY/WX    TMP DP  RH WIND       PRES   REMARKS
CHARLESTON     CLEAR     76  74  93 CALM      29.94S
BEAUFORT MCAS  CLEAR     77  75  93 NE5       29.94R
HILTON HEAD    CLEAR     79  79 100 CALM      29.94S

.........CENTRAL SC.........

CITY           SKY/WX    TMP DP  RH WIND       PRES   REMARKS
COLUMBIA       MOCLDY    80  73  79 CALM      29.96S
ORANGEBURG     PTCLDY    76  73  91 CALM      29.96S
SUMTER SHAW    CLOUDY    78  73  86 E5        29.95S

.........WESTERN SC.........

CITY           SKY/WX    TMP DP  RH WIND       PRES   REMARKS
GREENVILLE     NOT AVBL
ROCK HILL      CLEAR     73  72  96 CALM      30.00F
ANDERSON       CLEAR     74  70  87 NE5       29.98F
CLEMSON        NOT AVBL
GREENWOOD      CLEAR     74  70  87 CALM      29.99F


...................COASTAL AND OFFSHORE REPORTS..................

................LOCAL PIERS AND NC RESERVE................


STATION/POSITION TIME  SKY/WX   TEMP    WIND        PRES    VSBY
                                AIR SEA DIR/SP/G
                 (UTC)          (F)     (DEG/KT/KT) (MB)    (MI)
JOHNY MRCER PIER 0800            81 84   60/  8/  8 1014.3F
NC RESRV MASNBRO NOT AVBL
OCEAN CREST PIER NOT AVBL
SPRINGMAID  PIER 0800            79 85  360/  5/  6 1014.4F


................COASTAL AND OFFSHORE BUOYS................


STATION/POSITION TIME  SKY/WX   TEMP    WIND        PRES    VSBY
                                AIR SEA DIR/SP/G
                 (UTC)          (F)     (DEG/KT/KT) (MB)    (MI)
DIMNDSHOAL 41025 NOT AVBL
CAPE LOOKOUT     0900            80      80/  8/  9 1014.9F
ONSLOW BAY 41036 NOT AVBL
5 WRITEBCH 41038 0808            81 81   80/  8/ 10 1014.6F
MASONBORO  41110 0819               81                N/A
WVE H/P(F/S)=  3/ 6 WND WVE H/P(F/S)=  3/ 6

WILM HARBR 41108 0811               82                N/A
WVE H/P(F/S)=  3/ 6 WND WVE H/P(F/S)=  3/ 6

27WRITEBCH 41037 0800            78 81   90/  8/ 10   N/A
FRYING PAN 41013 0850            83 84   80/ 12/ 14 1014.1F
WVE H/P(F/S)=  3/ 7 WND WVE H/P(F/S)=  2/ 6 SWL H/P/D(F/S/D)=  3/190/ 7

SUNST NRSH 41024 0808            79      50/ 10/ 12 1014.4F
CAPRS NRSH 41029 0808            81      60/  8/ 12 1013.7F
EDISTO     41004 0850            82 84   20/  8/ 10 1012.8F
WVE H/P(F/S)=  3/ 7 WND WVE H/P(F/S)=  2/ 4 SWL H/P/D(F/S/D)=  3/ 7



..........OFFSHORE BUOYS BEYOND 100 NM OFFSHORE...........
.....IN A TRIANGLE---HAT TO BERMUDA TO BAHAMAS TO HAT.....


STATION/POSITION TIME  SKY/WX   TEMP    WIND        PRES    VSBY
                                AIR SEA DIR/SP/G
                 (UTC)          (F)     (DEG/KT/KT) (MB)    (MI)
150E HAT   41001 0900            80 83   80/  8/ 10 1015.9R
W BERMUDA  41048 0850            78 81  220/ 14/ 17 1015.4F
WVE H/P(F/S)=  5/ 6 WND WVE H/P(F/S)=  3/ 6 SWL H/P/D(F/S/D)=  2/100/11

ATLANTIC S 41049 0850            83 85  250/  4/  6 1019.3S
WVE H/P(F/S)=  3/10 SWL H/P/D(F/S/D)=  2/ 90/10

E BAHAMAS  41046 0850            83 84  110/ 10/ 12 1017.9F
WVE H/P(F/S)=  3/ 7 WND WVE H/P(F/S)=  2/ 5 SWL H/P/D(F/S/D)=  2/140/ 7

NE BAHAMAS 41047 0850            83 84  190/ 10/ 12 1017.0S
WVE H/P(F/S)=  3/ 7 WND WVE H/P(F/S)=  2/ 5 SWL H/P/D(F/S/D)=  3/160/ 7

120E CANVRL41010 0820            84 84  210/ 12/ 14 1014.6F

END



USA.gov is the U.S. government's official web portal to all federal, state and local government web resources and services.